Regional Weather Roundup
Issued by NWS

Home | Current Version | Previous Version | Graphics & Text | Print | Product List | Glossary On
Versions: 1 2 3 4 5 6 7 8 9 10 11 12 13 14 15 16 17 18 19 20 21 22 23 24 25 26 27 28 29 30 31 32 33 34 35 36 37 38 39 40 41 42 43 44 45 46 47 48 49 50
000
ASUS45 KTFX 210619
RWRMT
MONTANA HOURLY WEATHER ROUNDUP
NATIONAL WEATHER SERVICE GREAT FALLS MT
1219 AM MDT TUE OCT 21 2014

NOTE: "FAIR" INDICATES FEW OR NO CLOUDS BELOW 12000 FEET WITH NO
SIGNIFICANT WEATHER AND/OR OBSTRUCTIONS TO VISIBILITY.

* THESE STATIONS ARE NOT UNDER NWS QUALITY CONTROL. THEY DO NOT
   REPORT WEATHER SUCH AS PRECIPITATION OR FOG.

MTZ001>007-043-210700-
WEST OF THE DIVIDE
CITY           SKY/WX    TMP DP  RH WIND       PRES   REMARKS
KALISPELL      PTCLDY    37  36  96 CALM      29.69F
MISSOULA       MOCLDY    50  39  66 CALM      29.72R
BUTTE          CLEAR     54  32  43 S10       29.84F
MULLAN PASS    MOCLDY    41  39  93 NW8       29.84R
* ESSEX        N/A       46  36  68 NE2        N/A
* LINCOLN      N/A       43  34  71 W1         N/A
* POLSON       N/A       52  36  55 N/A        N/A
* RONAN APT    PTCLDY    43  37  79 N/A        N/A
* SEELEY LAKE  N/A       41  35  79 N2         N/A
* THOMP F APT  MOCLDY    49  33  54 NE4        N/A
$$

MTZ008-052>055-210700-
SOUTHWEST MONTANA
CITY           SKY/WX    TMP DP  RH WIND       PRES   REMARKS
BOZEMAN        CLEAR     48  36  63 CALM      29.81F
DILLON         CLEAR     52  34  50 N6        29.83F
W YELLOWSTONE  CLEAR     30  27  89 CALM      29.98F
* THREE FORKS  CLEAR     55  45  69 N/A        N/A
* BOULDER HILL N/A       54  28  37 S5         N/A
* MONIDA PASS  N/A       47  33  58 SE12       N/A
* RAYNOLDS PAS N/A       48  30  50 S16        N/A
* WHITEHALL    N/A       56  31  39 E2         N/A
* WISE RIVER   N/A       47  30  52 SE11       N/A
$$

MTZ009>010-012-014-046-048-049-054-210700-
EAST SLOPES AND CENTRAL MONTANA
CITY           SKY/WX    TMP DP  RH WIND       PRES   REMARKS
CUT BANK       PTCLDY    48  28  46 W5        29.70F
GREAT FALLS    CLEAR     61  34  36 S13       29.68F
HELENA         CLEAR     55  36  49 CALM      29.72F
MALMSTROM AFB  CLEAR     59  34  39 S13       29.69F
* CONRAD       CLEAR     39  32  76 N/A        N/A
* EAST GLACIER N/A       54  30  40 SW4G11     N/A
* MONARCH      N/A       58  30  35 S6G12      N/A
* PENDROY      N/A       52  31  45 W2         N/A
* SAINT MARY   N/A       45  29  54 SE5        N/A
* SWEET GRASS  N/A       59  27  29 SW7        N/A
* WHITE SULPH  N/A       56  33  42 S7G12      N/A
$$

MTZ011-013-016-021-035-040-045-047-050-051-210700-
NORTH CENTRAL MONTANA
CITY           SKY/WX    TMP DP  RH WIND       PRES   REMARKS
HAVRE          CLEAR     48  39  71 NE3       29.66F
LEWISTOWN      CLEAR     46  34  63 NW5       29.78S
* CHINOOK      CLEAR     50  43  77 E5        29.68F
* FORT BENTON  CLEAR     52  34  50 CALM      29.67F
* CHESTER      N/A       41  25  53 N3         N/A
* DENTON       N/A       56  36  47 SE12       N/A
* JUDITH GAP   N/A       47  36  66 S4         N/A
* LOMA         N/A       54  35  49 NE8        N/A
$$

MTZ017>020-022>027-061-062-210700-
NORTHEAST MONTANA
CITY           SKY/WX    TMP DP  RH WIND       PRES   REMARKS
GLASGOW        CLEAR     50  37  61 E13       29.72F
GLENDIVE       CLEAR     54  41  62 S3        29.80F
JORDAN         CLEAR     43  34  71 CALM      29.75F
SIDNEY         CLEAR     45  39  80 CALM      29.80F
WOLF POINT     CLEAR     45  37  74 NE3       29.75F
* BEAVER HILL  N/A       57  42  57 SE12       N/A
* CIRCLE       N/A       56  40  55 N/A        N/A
* LINDSAY DVD  N/A       53  39  59 S1         N/A
* NAVAJO       N/A       53  39  59 S7         N/A
$$

MTZ028>042-056>058-210700-
SOUTHCENTRAL AND SOUTHEAST MONTANA
CITY           SKY/WX    TMP DP  RH WIND       PRES   REMARKS
BAKER          CLEAR     48  41  77 SE10      29.82F
BILLINGS       CLEAR     61  28  29 SW10      29.79F
LIVINGSTON     CLEAR     61  36  39 W12       29.82F
MILES CITY     CLEAR     57  43  60 SE10      29.77F
* LAUREL APT   CLEAR     57  27  32 N/A        N/A
* ROUNDUP APT  CLEAR     50  30  46 N/A        N/A
* ALZADA       N/A       47  42  83 E3         N/A
* LAME DEER    N/A       64  38  38 E6         N/A
* REED POINT   N/A       43  35  73 N/A        N/A
* ROSCOE HILL  N/A       66  26  22 S11G19     N/A
$$

REGIONAL REPORTS...DAKOTAS
CITY           SKY/WX    TMP DP  RH WIND       PRES   REMARKS
WILLISTON      CLEAR     54  41  62 CALM      29.81F
DICKINSON      CLEAR     50  37  61 SE14      29.83F
BEACH          N/A       48  41  77 SE6       29.83F
CROSBY         CLEAR     50  43  77 S13       29.80S
TIOGA          CLEAR     45  41  86 E3        29.87S
BISMARCK       CLEAR     52  34  50 E10       29.92F
GRAND FORKS    CLEAR     43  37  79 SE12      30.05S
FARGO          CLEAR     46  37  71 E10       30.04F
BUFFALO SD     PTCLDY    55  41  59 SE5       29.78F
RAPID CITY     CLEAR     54  43  67 SE7       29.87F
$$

REGIONAL REPORTS...WYOMING/IDAHO/WASHINGTON
CITY           SKY/WX    TMP DP  RH WIND       PRES   REMARKS
GILLETTE       CLEAR     57  32  39 S15       29.87F
SHERIDAN       CLEAR     48  30  50 CALM      29.84F
CODY           CLEAR     52  34  50 SW3       29.89F
YELLOWSTONE LA PTCLDY    32  28  85 NW3       30.09F
SALMON         MOCLDY    57  36  46 SE7       29.75F
MULLAN PASS    MOCLDY    41  39  93 NW8       29.84S
SAND POINT     MOCLDY    50  50 100 S7        29.75R
SPOKANE        LGT RAIN  52  45  77 SW23G28   29.84R
$$

REGIONAL REPORTS...ALBERTA
CITY           SKY/WX    TMP DP  RH WIND       PRES   REMARKS
CALGARY        PTCLDY    54  30  40 S6        29.60S
LETHBRIDGE     MOCLDY    45  34  65 W6        29.65F
MEDICINE HAT   MOCLDY    48  36  63 SW5       29.63F
EDMONTON       PTCLDY    41  36  82 S6        29.50R
WATERTON GATE  N/A       37  30  76 NE3        N/A
CARDSTON       N/A       46  34  63 S2         N/A
MILK RIVER     N/A       41  28  60 E2         N/A
$$

REGIONAL REPORTS...SASKATCHEWAN
CITY           SKY/WX    TMP DP  RH WIND       PRES   REMARKS
SWIFT CURRENT  CLEAR     55  43  64 S15G22    29.67F
REGINA         N/A       48  41  77 SE13      29.73F
VAL MARIE      N/A       37  36  96 NE3        N/A
ASSINIBOIA     N/A       48  39  71 SE3        N/A
CORONACH       N/A       50  39  66 E6         N/A

$$




USA.gov is the U.S. government's official web portal to all federal, state and local government web resources and services.